Starlink 11632

operational
NORAD ID: 63108 Int'l Des: 2025-039 Owner: SPXS Country: US Constellation: starlink
LEOCIRCULAR

Über Starlink 11632

Beschreibung wird geladen...

Live-Position

3D-Globus wird geladen...

Nächste Überflüge

Höhenverlauf

Altitude vs Time

uPlot chart will show altitude changes over time

Zweizeiliger Elementsatz

1 63108U 25039E 25304.10560774 .00290345 00000-0 21784-2 0 9998
2 63108 42.9929 298.0761 0002647 147.5204 212.5826 15.70944520 39230
Epoch: 31. Okt. 2025 • Age: 20 hours

Aktueller Status

Höhe 356.0 km
Geschwindigkeit 7.70 km/s
Subsatellitenpunkt 30.82°N, 46.52°W
Startdatum 27. Feb. 2025
Alter 0.6 years
Typ internet

Technische Details

Klassifizierung Payload
Masse 960.00 kg
Trockenmasse 910.00 kg
Gesamtmasse 960.00 kg
Länge 0.30 m
Durchmesser 4.10 m
Spannweite 29.00 m
Form Box + pan
Hersteller SPXS
Bus-Typ Starlink V2MD
Phasenstatus In Orbit
Besitzer/Staat SPXS/US

Große Konstellationen

Loading constellations...